Location: *
(40.4000°N, 15.1200°E)
Time: 18:43:39
(UTC+00:00)

Cosmos 1190 Rocket - Pass Details

Date: 09 April 2020
Orbit: 757 x 779 km, 74.1° (Epoch: 06 June)

Event Time Altitude Azimuth Distance (km) Brightness Sun altitude
Rises 18:35:35 0° 197° (SSW) 3,246 7.2 -12.3°
Reaches altitude 10° 18:37:57 10° 198° (SSW) 2,321 6.5 -12.7°
Maximum altitude 18:43:14 90° 276° (W) 782 4.0 -13.6°
Drops below altitude 10° 18:48:33 10° 19° (NNE) 2,326 6.6 -14.6°
Sets 18:50:56 0° 20° (NNE) 3,254 7.3 -15.0°
